Weather History for Flint, MI

Change the Weather History Date:

Thursday, January 19, 2012

  Actual Average Record
Temperature  
Mean Temperature 17 °F 22 °F  
Max Temperature 28 °F 29 °F 54 °F (1949)
Min Temperature 6 °F 15 °F -21 °F (1994)
Degree Days  
Heating Degree Days 48 43  
Month to date heating degree days 666 806  
Since 1 July heating degree days 2851 3451  
Cooling Degree Days 0 0  
Month to date cooling degree days 0 0  
Year to date cooling degree days 0 0  
Moisture  
Dew Point 10 °F    
Average Humidity 71    
Maximum Humidity 84    
Minimum Humidity 58    
Precipitation  
Precipitation 0.04 in 0.05 in 1.04 in (1933)
Month to date precipitation 0.88 1.06  
Year to date precipitation 0.88 1.06  
Snow  
Snow 0.80 in 0.50 in 3.50 in ()
Month to date snowfall 6.9 8.1  
Since 1 July snowfall 15.0 22.8  
Snow Depth 1.00 in    
Sea Level Pressure  
Sea Level Pressure 29.87 in    
Wind  
Wind Speed 16 mph (WSW)    
Max Wind Speed 30 mph    
Max Gust Speed 38 mph    
Visibility 8 miles    
Events Fog , Snow    
T = Trace of Precipitation, MM = Missing Value Source: NWS Daily Summary

Daily Weather History Graph

Daily Weather History Graph

Search for Another Location

Airport:

Trip Planner

Search our weather history database for the weather conditions in past years. The results will help you decide how hot, cold, wet, or windy it might be!

Date:

Astronomy

Jan. 19, 2012 Rise Set
Actual Time 8:01 AM EST 5:30 PM EST
Civil Twilight 7:30 AM EST 6:01 PM EST
Nautical Twilight 6:55 AM EST 6:36 PM EST
Astronomical Twilight 6:21 AM EST 7:10 PM EST
Moon 4:38 AM EST (1/19) 1:59 PM EST (1/19)
Length of Visible Light 10h 31m
Length of Day
9h 28m
Waning Crescent, 16% of the Moon is Illuminated
Jan 19
Waning Crescent
Jan 23
New
Jan 30
First Quarter
Feb 7
Full
Feb 14
Last Quarter

Hourly Weather History & Observations

Time (EST) Temp. Windchill Dew Point Humidity Pressure Visibility Wind Dir Wind Speed Gust Speed Precip Events Conditions
12:53 AM 23.0 °F 10.6 °F 15.1 °F 72% 29.96 in 10.0 mi SSW 13.8 mph - N/A   Mostly Cloudy
1:53 AM 23.0 °F 11.7 °F 15.1 °F 72% 29.91 in 10.0 mi South 11.5 mph 20.7 mph N/A   Clear
2:53 AM 23.0 °F 10.1 °F 15.1 °F 72% 29.87 in 10.0 mi South 15.0 mph 20.7 mph N/A   Clear
3:53 AM 23.0 °F 10.1 °F 16.0 °F 74% 29.81 in 10.0 mi South 15.0 mph 21.9 mph N/A   Clear
4:53 AM 25.0 °F 13.6 °F 16.0 °F 69% 29.78 in 10.0 mi SSW 12.7 mph 25.3 mph N/A   Overcast
5:53 AM 25.0 °F 11.7 °F 17.1 °F 72% 29.75 in 10.0 mi SSW 17.3 mph 21.9 mph N/A   Overcast
6:53 AM 26.6 °F 16.2 °F 17.6 °F 69% 29.69 in 8.0 mi SSW 11.5 mph - N/A Snow Light Snow
7:53 AM 27.0 °F 14.3 °F 19.0 °F 72% 29.71 in 1.5 mi SSW 17.3 mph 25.3 mph 0.00 in Snow Light Snow
8:03 AM 26.6 °F 15.2 °F 19.4 °F 74% 29.68 in 1.5 mi SSW 13.8 mph 23.0 mph N/A Snow Light Snow
8:26 AM 26.6 °F 15.2 °F 21.2 °F 80% 29.68 in 0.5 mi SSW 13.8 mph - 0.00 in Fog , Snow Snow
8:53 AM 26.1 °F 15.0 °F 23.0 °F 88% 29.73 in 0.5 mi SW 12.7 mph 18.4 mph 0.02 in Fog , Snow Light Snow
9:35 AM 26.6 °F 15.7 °F 23.0 °F 86% 29.71 in 0.8 mi WSW 12.7 mph 19.6 mph 0.01 in Snow Light Snow
9:42 AM 26.6 °F 14.7 °F 23.0 °F 86% 29.71 in 1.5 mi WSW 15.0 mph 20.7 mph 0.02 in Snow Light Snow
9:51 AM 28.4 °F 16.6 °F 21.2 °F 74% 29.71 in 4.0 mi WSW 16.1 mph 21.9 mph 0.02 in   Haze
9:53 AM 28.0 °F 16.5 °F 21.9 °F 78% 29.75 in 4.0 mi WSW 15.0 mph 21.9 mph 0.02 in   Haze
10:53 AM 26.1 °F 10.1 °F 16.0 °F 66% 29.78 in 8.0 mi West 27.6 mph 38.0 mph 0.00 in   Overcast
11:53 AM 21.9 °F 3.9 °F 12.9 °F 68% 29.81 in 4.0 mi West 29.9 mph 35.7 mph 0.00 in Snow Light Snow
12:53 PM 19.4 °F 1.8 °F 8.6 °F 63% 29.79 in 9.0 mi WNW 25.3 mph 33.4 mph N/A Snow Light Snow
1:53 PM 17.1 °F -0.3 °F 8.1 °F 68% 29.84 in 9.0 mi WNW 21.9 mph 27.6 mph 0.00 in   Overcast
2:53 PM 16.0 °F -1.7 °F 3.9 °F 59% 29.87 in 10.0 mi WNW 21.9 mph 31.1 mph N/A   Overcast
3:08 PM 15.8 °F -1.1 °F 6.8 °F 68% 29.84 in 10.0 mi NW 19.6 mph - N/A   Overcast
3:53 PM 15.1 °F -2.0 °F 3.9 °F 61% 29.91 in 9.0 mi WNW 19.6 mph 24.2 mph N/A   Scattered Clouds
4:02 PM 14.0 °F -3.4 °F 3.2 °F 62% 29.87 in 9.0 mi WNW 19.6 mph - N/A   Mostly Cloudy
4:09 PM 14.0 °F -3.0 °F 1.4 °F 57% 29.88 in 10.0 mi WNW 18.4 mph - N/A   Scattered Clouds
4:53 PM 12.9 °F -4.9 °F -0.0 °F 56% 29.96 in 10.0 mi WNW 19.6 mph 25.3 mph N/A   Mostly Cloudy
5:53 PM 12.0 °F -4.5 °F -0.0 °F 59% 30.01 in 10.0 mi WNW 16.1 mph - N/A   Mostly Cloudy
6:02 PM 12.2 °F -2.5 °F -0.4 °F 57% 29.97 in 10.0 mi WNW 12.7 mph - N/A   Scattered Clouds
6:53 PM 10.9 °F -4.1 °F -0.9 °F 59% 30.06 in 10.0 mi WNW 12.7 mph - N/A   Scattered Clouds
7:53 PM 9.0 °F -6.6 °F -0.9 °F 64% 30.08 in 10.0 mi WNW 12.7 mph - N/A   Clear
8:53 PM 8.6 °F -3.7 °F -0.4 °F 67% 30.05 in 10.0 mi West 8.1 mph - N/A   Clear
9:53 PM 6.8 °F -7.8 °F -2.2 °F 67% 30.07 in 10.0 mi West 10.4 mph - N/A   Clear
10:53 PM 7.0 °F -4.5 °F -2.0 °F 67% 30.14 in 10.0 mi West 6.9 mph - N/A   Clear
11:53 PM 6.1 °F -5.6 °F -2.0 °F 69% 30.17 in 10.0 mi West 6.9 mph - N/A   Clear